CW5629 Weather Reports


Display with metric or nautical units.
time (UTC)temp
F
wind
direction
speed
MPH
gust
MPH
rain 1hr
in
rain 24hr
in
rain mn
in
humidity
%
barometer
mb
20260508193117 56 98 0.0 0.0 0.00 0.00 0.00 76 1015.6
20260508192149 56 96 0.0 2.0 0.00 0.00 0.00 75 1015.5
20260508191131 57 118 0.0 1.0 0.00 0.00 0.00 75 1015.4
20260508190124 57 114 0.0 1.0 0.00 0.00 0.00 75 1015.3
20260508185130 58 115 0.0 1.0 0.00 0.00 0.00 74 1015.2
20260508184122 59 120 0.0 1.0 0.00 0.00 0.00 73 1015.2
20260508183136 59 120 0.0 1.0 0.00 0.00 0.00 72 1015.1
20260508182115 61 99 0.0 1.0 0.00 0.00 0.00 71 1015.1
20260508181144 61 101 0.0 1.0 0.00 0.00 0.00 70 1015.0
20260508180136 62 89 0.0 1.0 0.00 0.00 0.00 70 1014.9
20260508175150 62 108 0.0 1.0 0.00 0.00 0.00 70 1014.8
20260508174134 63 120 0.0 1.0 0.00 0.00 0.00 69 1014.7
20260508173123 63 115 0.0 0.0 0.00 0.00 0.00 70 1014.6
20260508172132 63 103 0.0 1.0 0.00 0.00 0.00 71 1014.6
20260508171147 63 104 0.0 2.0 0.00 0.00 0.00 70 1014.5
20260508170129 63 102 0.0 2.0 0.00 0.00 0.00 69 1014.5
20260508165122 64 88 0.0 1.0 0.00 0.00 0.00 68 1014.4
20260508164114 64 340 0.0 2.0 0.00 0.00 0.00 66 1014.4
20260508163119 65 75 0.0 3.0 0.00 0.00 0.00 61 1014.3
20260508162153 66 82 0.0 3.0 0.00 0.00 0.00 57 1014.2
20260508161124 66 96 0.0 2.0 0.00 0.00 0.00 60 1014.2
20260508160129 66 99 0.0 4.0 0.00 0.00 0.00 61 1014.2
20260508155120 66 115 0.0 3.0 0.00 0.00 0.00 57 1014.1
20260508154112 67 101 0.0 5.0 0.00 0.00 0.00 57 1014.1
20260508153147 67 124 0.0 2.0 0.00 0.00 0.00 57 1014.1
20260508152129 67 347 0.0 3.0 0.00 0.00 0.00 57 1014.1
20260508151122 67 95 0.0 3.0 0.00 0.00 0.00 55 1014.1
20260508150135 67 113 0.0 2.0 0.00 0.00 0.00 55 1014.2
20260508145121 66 93 1.0 4.0 0.00 0.00 0.00 52 1014.3
20260508144134 66 105 0.0 2.0 0.00 0.00 0.00 57 1014.3
20260508143120 65 346 1.0 5.0 0.00 0.00 0.00 60 1014.4
20260508142128 65 96 1.0 2.0 0.00 0.00 0.00 60 1014.4
20260508141121 65 102 1.0 4.0 0.00 0.00 0.00 57 1014.5
20260508140128 65 109 0.0 4.0 0.00 0.00 0.00 60 1014.4
20260508135120 66 158 0.0 4.0 0.00 0.00 0.00 59 1014.4
20260508134134 66 89 0.0 3.0 0.00 0.00 0.00 60 1014.3
20260508133119 66 100 1.0 3.0 0.00 0.00 0.00 57 1014.4
20260508132116 67 67 0.0 6.0 0.00 0.00 0.00 57 1014.3
20260508131123 67 329 0.0 3.0 0.00 0.00 0.00 60 1014.2
20260508130115 67 132 0.0 2.0 0.00 0.00 0.00 62 1014.2
20260508125128 66 97 1.0 2.0 0.00 0.00 0.00 64 1014.1
20260508124123 66 107 0.0 4.0 0.00 0.00 0.00 63 1014.1
20260508123136 67 104 0.0 3.0 0.00 0.00 0.00 62 1014.0
20260508122126 67 105 0.0 2.0 0.00 0.00 0.00 61 1014.1
20260508121120 67 165 0.0 2.0 0.00 0.00 0.00 62 1014.2
20260508120154 66 117 0.0 4.0 0.00 0.00 0.00 60 1014.3
20260508115119 67 98 0.0 2.0 0.00 0.00 0.00 61 1014.2
20260508114130 67 108 0.0 2.0 0.00 0.00 0.00 60 1014.4
20260508113115 67 125 0.0 2.0 0.00 0.00 0.00 62 1014.3
20260508112114 68 108 0.0 3.0 0.00 0.00 0.00 62 1014.2
20260508111121 68 126 1.0 6.0 0.00 0.00 0.00 62 1014.1
20260508110114 67 116 0.0 2.0 0.00 0.00 0.00 62 1014.2
20260508105148 66 95 0.0 2.0 0.00 0.00 0.00 66 1014.1
20260508104142 64 84 1.0 3.0 0.00 0.00 0.00 67 1014.1
20260508103127 65 94 0.0 2.0 0.00 0.00 0.00 64 1014.1
20260508102120 65 109 0.0 2.0 0.00 0.00 0.00 65 1013.9
20260508101155 65 115 0.0 2.0 0.00 0.00 0.00 66 1014.0
20260508100147 64 120 0.0 1.0 0.00 0.00 0.00 67 1014.1
20260508095112 64 129 0.0 2.0 0.00 0.00 0.00 67 1014.1
20260508094124 64 105 0.0 2.0 0.00 0.00 0.00 67 1014.1
20260508093110 63 107 0.0 1.0 0.00 0.00 0.00 66 1014.0
20260508092144 63 115 0.0 1.0 0.00 0.00 0.00 71 1013.9
20260508091115 62 129 0.0 1.0 0.00 0.00 0.00 74 1013.9
20260508090122 61 95 0.0 1.0 0.00 0.00 0.00 75 1013.9
20260508085114 60 115 0.0 2.0 0.00 0.00 0.00 79 1013.9
20260508084117 58 131 0.0 2.0 0.00 0.00 0.00 83 1014.0
20260508083109 57 98 0.0 1.0 0.00 0.00 0.00 82 1014.0
20260508082123 57 121 0.0 1.0 0.00 0.00 0.00 82 1014.0
20260508081127 57 98 0.0 3.0 0.00 0.00 0.00 81 1013.9
20260508080120 58 120 0.0 1.0 0.00 0.00 0.00 78 1014.0
20260508075121 58 113 0.0 1.0 0.00 0.00 0.00 80 1013.9
20260508074112 57 105 0.0 1.0 0.00 0.00 0.00 81 1013.7
20260508073148 57 105 0.0 1.0 0.00 0.00 0.00 83 1013.7
20260508072113 56 105 0.0 1.0 0.00 0.00 0.00 86 1013.7
20260508070139 53 115 0.0 0.0 0.00 0.00 0.00 89 1013.6
20260508065130 53 115 0.0 1.0 0.00 0.00 0.00 88 1013.5
20260508064134 53 117 0.0 1.0 0.00 0.00 0.00 88 1013.4
20260508063146 52 117 0.0 1.0 0.00 0.00 0.00 89 1013.4
20260508062117 52 103 0.0 1.0 0.00 0.00 0.00 89 1013.3
20260508061130 52 106 0.0 1.0 0.00 0.00 0.00 89 1013.3
20260508060116 51 109 0.0 1.0 0.00 0.00 0.00 89 1013.4
20260508055127 51 112 0.0 0.0 0.00 0.00 0.00 89 1013.3
20260508054114 51 112 0.0 1.0 0.00 0.00 0.00 90 1013.4
20260508053126 51 112 0.0 0.0 0.00 0.00 0.00 90 1013.3
20260508052119 51 111 0.0 0.0 0.00 0.00 0.00 90 1013.3
20260508051123 50 111 0.0 0.0 0.00 0.00 0.00 90 1013.3
20260508050118 50 111 0.0 0.0 0.00 0.00 0.00 89 1013.3
20260508045121 50 111 0.0 0.0 0.00 0.00 0.00 89 1013.2
20260508044111 50 111 0.0 0.0 0.00 0.00 0.00 89 1013.2
20260508043123 50 115 0.0 0.0 0.00 0.00 0.00 89 1013.2
20260508042113 50 115 0.0 0.0 0.00 0.00 0.00 89 1013.2
20260508041127 50 114 0.0 0.0 0.00 0.00 0.00 89 1013.0
20260508040140 50 116 0.0 0.0 0.00 0.00 0.00 89 1012.9
20260508035132 51 116 0.0 0.0 0.00 0.00 0.00 89 1013.0
20260508034115 51 116 0.0 0.0 0.00 0.00 0.00 89 1013.2
20260508033128 51 116 0.0 0.0 0.00 0.00 0.00 89 1013.3
20260508032114 51 116 0.0 1.0 0.00 0.00 0.00 89 1013.4
20260508031128 51 116 0.0 0.0 0.00 0.00 0.00 89 1013.4
20260508030141 51 116 0.0 0.0 0.00 0.00 0.00 89 1013.5
20260508025133 51 116 0.0 0.0 0.00 0.00 0.00 89 1013.6
20260508024117 51 116 0.0 1.0 0.00 0.00 0.00 89 1013.5
20260508023129 51 129 0.0 0.0 0.00 0.00 0.00 89 1013.7
20260508022122 51 129 0.0 0.0 0.00 0.00 0.00 89 1013.6
20260508021134 51 129 0.0 0.0 0.00 0.00 0.00 90 1013.6
20260508020120 51 129 0.0 0.0 0.00 0.00 0.00 90 1013.8
20260508015133 51 129 0.0 0.0 0.00 0.00 0.00 90 1013.8
20260508014126 51 129 0.0 1.0 0.00 0.00 0.00 90 1013.7
20260508013120 51 110 0.0 0.0 0.00 0.00 0.00 90 1013.7
20260508012125 51 110 0.0 1.0 0.00 0.00 0.00 90 1013.8
20260508010111 51 122 0.0 0.0 0.00 0.00 0.00 90 1013.9
20260508005123 51 122 0.0 0.0 0.00 0.00 0.00 90 1014.0
20260508004137 51 122 0.0 1.0 0.00 0.00 0.00 90 1014.1
20260508003123 52 122 0.0 0.0 0.00 0.00 0.00 90 1014.0
20260508002136 52 122 0.0 0.0 0.00 0.00 0.00 90 1014.0
20260508001122 52 122 0.0 0.0 0.00 0.00 0.00 89 1014.1
20260508000135 52 122 0.0 0.0 0.00 0.00 0.00 89 1014.2
20260507235121 52 122 0.0 0.0 0.00 0.00 0.00 89 1014.2
20260507234114 52 122 0.0 1.0 0.00 0.00 0.00 88 1014.2
20260507233120 52 123 0.0 1.0 0.00 0.00 0.00 88 1014.3
20260507232113 52 123 0.0 1.0 0.00 0.00 0.00 88 1014.3
20260507231120 52 119 0.0 1.0 0.00 0.00 0.00 88 1014.3
20260507230131 52 119 0.0 0.0 0.00 0.00 0.00 87 1014.3
20260507225124 52 119 0.0 1.0 0.00 0.00 0.00 86 1014.3
20260507224157 52 119 0.0 0.0 0.00 0.00 0.00 86 1014.3
20260507223122 52 119 0.0 1.0 0.00 0.00 0.00 85 1014.4
20260507222113 52 120 0.0 0.0 0.00 0.00 0.00 84 1014.4
20260507221125 52 113 0.0 0.0 0.00 0.00 0.00 83 1014.4
20260507220116 52 113 0.0 1.0 0.00 0.00 0.00 83 1014.5
20260507215135 52 103 0.0 1.0 0.00 0.00 0.00 82 1014.6
20260507214112 52 120 0.0 1.0 0.00 0.00 0.00 81 1014.5
20260507213118 52 113 0.0 0.0 0.00 0.00 0.00 81 1014.5
20260507212130 52 113 0.0 0.0 0.00 0.00 0.00 81 1014.4
20260507211117 52 113 0.0 0.0 0.00 0.00 0.00 80 1014.4
20260507210158 53 113 0.0 0.0 0.00 0.00 0.00 79 1014.3
20260507205143 53 113 0.0 0.0 0.00 0.00 0.00 79 1014.3
20260507204115 53 113 0.0 1.0 0.00 0.00 0.00 79 1014.2
20260507203128 53 113 0.0 1.0 0.00 0.00 0.00 80 1014.1
20260507202141 53 120 0.0 1.0 0.00 0.00 0.00 80 1014.1
20260507201126 53 120 0.0 1.0 0.00 0.00 0.00 79 1014.0
20260507200119 53 120 0.0 0.0 0.00 0.00 0.00 79 1013.9
20260507195126 53 120 0.0 1.0 0.00 0.00 0.00 78 1013.8
20260507194137 53 120 0.0 1.0 0.00 0.00 0.00 78 1013.7